Dewpoint
-21 -22 -21 -21 -20 -20 -18 -13 -2 0 -1 -5 -8 -10 -12 -14 -14 -12 -10 -9 -8 -9 -7 -5 -5 -6 -7 -10 -14 -12 -7 -14 -11 -11 -12 -4 -2 -1 -1 -1 -2 -4 -3 -5 -5 -5 -6
-21 -21 -22 -22 -21 -20 -16 -0 0 -2 -4 -6 -9 -11 -13 -14 -13 -11 -9 -8 -7 -6 -6 -6 -8 -8 -9 -14 -20 -21 -18 -15 -18 -16 -14 -12 -4 -2 -1 -0 -3 -5 -6 -5 -4 -5 -6
-20 -21 -22 -22 -21 -20 -4 2 -1 -4 -7 -9 -11 -13 -14 -14 -13 -12 -9 -7 -6 -6 -6 -6 -7 -13 -16 -17 -19 -25 -21 -18 -20 -19 -14 -10 -10 -3 -3 -2 -6 -7 -6 -8 -9 -9 -6
-20 -20 -21 -22 -22 -19 -3 2 -1 -6 -9 -11 -12 -12 -15 -15 -15 -15 -12 -8 -5 -5 -5 -6 -5 -11 -12 -14 -17 -25 -24 -21 -20 -18 -17 -14 -15 -15 -15 -9 -4 -2 -4 -2 -12 -12 -7
-19 -20 -20 -21 -22 -17 1 -0 -3 -7 -9 -10 -11 -12 -14 -15 -16 -15 -12 -9 -10 -11 -9 -7 -7 -10 -12 -16 -20 -25 -21 -20 -18 -17 -15 -17 -21 -22 -19 -13 -9 -11 -6 -4 -11 -17 -16
-19 -19 -20 -21 -21 -10 2 -2 -7 -8 -8 -8 -9 -11 -13 -15 -17 -16 -14 -11 -10 -10 -10 -10 -11 -10 -20 -18 -19 -26 -19 -18 -17 -13 -18 -17 -19 -16 -17 -15 -13 -9 -16 -19 -19 -17 -19
-18 -18 -19 -21 -20 -3 1 -3 -7 -7 -8 -8 -9 -10 -12 -13 -16 -16 -13 -12 -4 -9 -14 -16 -14 -16 -18 -19 -19 -24 -20 -21 -19 -16 -13 -17 -14 -14 -16 -18 -19 -19 -19 -19 -18 -18 -20
-16 -17 -18 -20 -19 1 1 -4 -5 -5 -4 -5 -7 -8 -11 -12 -16 -15 -11 -8 -8 -11 -12 -12 -14 -17 -17 -18 -19 -26 -20 -18 -20 -16 -14 -15 -16 -17 -16 -18 -20 -20 -20 -21 -20 -17 -19
-12 -14 -17 -19 -17 1 0 -1 -1 -1 -1 -1 -3 -5 -9 -13 -14 -13 -13 -11 -10 -6 -7 -10 -12 -16 -17 -14 -18 -21 -19 -18 -17 -17 -16 -14 -17 -18 -18 -18 -20 -19 -18 -17 -17 -16 -17
-11 -13 -16 -18 -15 0 2 1 1 1 1 1 -1 -2 -8 -14 -11 -14 -12 -10 -5 -3 0 -4 -9 -14 -17 -13 -16 -18 -20 -18 -19 -16 -17 -17 -18 -18 -18 -17 -19 -21 -18 -18 -17 -17 -17
-2 -8 -12 -15 -14 -9 2 3 3 3 3 3 2 -2 -9 -14 -15 -17 -12 -7 -5 -2 1 -8 -11 -15 -17 -19 -19 -18 -20 -21 -19 -18 -16 -17 -18 -17 -18 -19 -18 -19 -18 -16 -16 -15 -14
7 7 3 -3 -7 -10 -7 1 3 3 4 4 3 0 -7 -15 -14 -16 -9 -9 -5 3 1 -7 -12 -14 -15 -17 -17 -18 -19 -20 -19 -18 -18 -18 -18 -19 -19 -18 -17 -18 -18 -16 -15 -14 -10
8 8 8 7 6 3 0 -3 -1 3 4 4 4 3 -5 -15 -18 -14 -6 -5 1 3 -9 -7 -10 -14 -17 -18 -17 -16 -16 -17 -19 -18 -19 -18 -17 -18 -19 -20 -19 -18 -15 -10 -11 -9 -11
8 8 8 7 8 7 7 6 5 5 6 6 4 3 -1 -14 -19 -15 -2 -2 -1 -4 -8 -12 -13 -14 -14 -20 -18 -17 -16 -15 -17 -20 -18 -18 -12 -17 -19 -21 -21 -17 -17 -10 -21 -13 -13
8 8 8 8 8 8 8 8 8 7 7 6 6 5 -1 -13 -18 -17 -5 0 -1 -6 -11 -13 -14 -14 -14 -16 -21 -17 -16 -16 -16 -18 -20 -20 -18 -18 -19 -18 -19 -18 -15 -17 -14 -14 -10
8 8 8 9 8 8 8 8 8 8 7 7 6 5 -1 -13 -16 -17 -3 -0 -8 -11 -14 -14 -15 -17 -17 -17 -20 -20 -17 -16 -15 -18 -18 -18 -24 -17 -16 -18 -17 -19 -20 -14 -10 -14 -12
9 9 9 8 8 9 9 8 8 7 8 7 6 4 -2 -11 -14 -7 -3 -4 -10 -12 -14 -14 -14 -17 -19 -20 -21 -21 -20 -16 -15 -17 -17 -18 -17 -16 -18 -16 -14 -15 -13 -17 -14 -13 -14
9 9 9 9 9 8 9 9 8 8 7 7 7 2 1 -6 -9 -9 -9 -12 -12 -13 -14 -15 -16 -17 -19 -19 -20 -19 -18 -16 -16 -17 -15 -16 -16 -12 -16 -18 -17 -16 -14 -16 -13 -16 -14
7 7 8 9 9 9 9 9 9 8 8 8 5 0 -2 -11 -8 -8 -11 -11 -13 -12 -13 -15 -15 -16 -18 -19 -22 -19 -15 -15 -17 -17 -15 -14 -12 -12 -15 -15 -14 -15 -15 -16 -16 -14 -13
7 8 7 7 7 8 9 8 7 8 7 5 3 0 -4 -12 -11 -10 -10 -10 -12 -13 -14 -16 -15 -17 -19 -18 -20 -18 -13 -14 -16 -16 -13 -16 -15 -15 -17 -17 -14 -13 -14 -13 -13 -11 -13
5 6 7 8 8 8 8 8 8 7 8 7 5 1 -4 -2 -7 -10 -10 -10 -10 -12 -14 -16 -16 -16 -17 -17 -17 -17 -14 -13 -14 -15 -12 -16 -13 -14 -15 -14 -14 -14 -14 -13 -13 -14 -12
3 3 4 5 6 6 7 7 8 8 8 7 6 2 -2 -5 -5 -8 -8 -7 -8 -11 -13 -13 -14 -14 -16 -20 -18 -16 -15 -14 -13 -14 -11 -14 -12 -13 -13 -14 -14 -12 -13 -13 -13 -14 -13
0 1 2 2 2 2 4 6 6 7 7 6 5 4 2 -0 -7 -7 -7 -8 -6 -10 -12 -15 -15 -15 -15 -17 -18 -17 -17 -17 -17 -12 -11 -14 -12 -11 -10 -14 -14 -12 -13 -14 -13 -15 -15
-1 -0 2 2 3 2 2 3 5 6 6 5 5 3 -0 2 -3 -4 -3 -6 -8 -9 -13 -14 -16 -17 -16 -16 -17 -17 -17 -16 -16 -15 -14 -14 -13 -12 -10 -12 -12 -15 -17 -17 -17 -16 -17
-2 -2 1 1 3 1 3 3 4 3 5 6 4 4 2 1 -2 -4 -4 -5 -9 -12 -15 -15 -16 -17 -16 -19 -17 -16 -14 -13 -13 -16 -15 -16 -12 -11 -9 -10 -15 -15 -15 -15 -17 -18 -17
-7 -4 -1 1 1 2 3 2 3 4 4 5 4 3 2 -0 -1 -4 -8 -9 -9 -13 -13 -12 -15 -15 -18 -17 -18 -14 -13 -14 -11 -12 -15 -14 -14 -12 -9 -10 -10 -15 -16 -17 -18 -14 -16
-3 -5 -2 1 1 2 3 4 3 3 4 5 4 4 1 -1 -4 -8 -12 -11 -12 -12 -7 -12 -14 -15 -16 -16 -16 -13 -14 -18 -11 -11 -12 -12 -12 -9 -9 -9 -11 -15 -16 -17 -14 -16 -15
-2 -1 -1 -3 -0 1 2 2 3 3 4 4 4 3 1 -0 -2 -5 -4 -13 -11 -5 -6 -11 -13 -14 -13 -11 -11 -12 -13 -14 -13 -15 -13 -12 -12 -10 -10 -9 -10 -16 -16 -15 -16 -15 -15
-3 -3 -3 -2 -2 1 1 3 2 3 2 4 2 2 -0 -1 -3 -4 -9 -12 -6 -4 -6 -12 -11 -14 -13 -10 -10 -10 -10 -12 -13 -13 -15 -13 -14 -13 -13 -13 -17 -17 -18 -18 -17 -17 -16
Wind_Speed
10 11 12 13 13 14 16 17 17 17 16 14 14 13 12 11 9 9 9 9 8 7 7 6 2 3 3 6 8 10 9 10 8 7 6 5 7 4 3 3 4 5 6 9 15 15 15
10 11 12 12 13 15 16 17 17 17 16 14 14 12 11 9 8 7 7 7 7 7 6 4 3 2 2 6 11 13 9 8 8 9 10 8 5 4 4 4 4 6 12 13 7 10 6
11 11 12 13 14 15 16 18 18 17 17 15 14 13 11 8 8 8 7 6 8 8 4 1 2 5 12 7 11 15 9 8 9 9 8 7 5 2 3 4 6 14 5 4 5 3 5
11 12 13 13 14 16 17 19 18 17 17 16 16 15 12 8 8 9 7 5 3 1 0 1 3 3 5 7 9 11 6 6 5 6 6 6 6 9 6 4 4 2 4 2 3 3 9
10 12 13 13 14 15 17 17 17 17 17 16 14 14 13 8 8 8 5 4 3 2 1 1 2 2 3 6 7 14 9 7 7 9 9 8 6 8 6 4 4 7 1 2 1 7 2
10 11 12 13 14 15 17 16 15 15 15 15 13 12 11 8 6 10 6 3 5 3 3 1 2 2 5 6 9 17 6 7 5 5 4 5 7 5 5 5 3 2 2 2 3 5 5
9 9 10 11 12 14 16 16 15 16 17 16 14 12 11 9 6 9 6 6 2 1 9 8 4 4 6 6 5 15 4 3 4 8 4 8 8 4 2 2 1 2 2 4 1 3 2
10 11 10 10 11 14 15 15 16 17 18 18 16 15 12 10 5 8 6 3 1 3 7 6 4 6 7 7 3 17 8 4 10 4 3 6 4 3 4 4 3 2 2 3 4 5 5
10 10 11 11 11 12 13 14 16 17 20 21 19 18 15 12 4 7 5 0 7 5 4 2 6 4 7 7 7 15 12 5 5 6 6 5 5 2 3 4 4 2 1 0 3 7 4
11 11 12 12 12 13 14 15 16 18 20 22 20 20 14 11 5 7 2 6 7 2 4 1 2 2 7 1 4 11 8 3 5 4 4 4 3 1 3 3 1 2 4 2 4 4 3
13 12 11 12 13 14 14 16 18 19 21 23 24 23 15 11 8 7 3 8 2 1 3 1 1 1 5 4 2 8 11 4 4 3 3 1 1 2 2 2 2 4 3 4 4 4 2
12 12 12 12 12 14 16 17 18 20 22 23 26 24 17 13 9 8 2 7 1 4 5 2 2 1 2 6 4 5 5 6 4 4 6 3 2 2 1 1 2 5 4 2 3 2 1
14 14 14 13 12 12 14 16 18 20 22 24 25 25 19 13 10 6 2 5 3 3 3 2 2 2 3 3 3 4 4 5 2 1 2 1 1 1 3 1 2 7 5 3 4 3 4
19 18 17 15 16 15 15 16 17 19 21 23 24 25 19 11 10 3 3 3 3 1 3 1 2 1 1 1 0 4 2 2 5 3 3 1 4 1 1 3 1 2 1 3 5 3 4
21 21 20 18 16 17 17 16 18 20 23 23 22 25 15 9 9 2 1 1 5 1 3 4 0 1 1 1 0 2 2 3 1 2 3 1 3 1 1 2 3 3 3 2 2 3 2
25 23 23 21 20 19 19 19 20 21 22 25 24 23 11 6 6 2 3 6 2 2 2 2 5 1 3 4 2 3 3 4 4 2 2 4 3 4 3 2 1 1 5 3 2 3 6
27 26 26 26 23 23 22 22 21 21 22 24 23 11 3 6 5 2 3 5 2 1 0 1 3 3 3 4 4 3 3 2 4 3 3 2 2 0 3 5 6 2 2 2 2 4 4
23 29 31 31 28 27 23 22 20 20 19 21 15 5 7 9 3 1 2 3 3 3 3 2 1 1 5 4 3 3 5 1 8 8 4 3 3 4 6 2 1 2 6 6 4 5 4
26 26 25 28 30 33 25 22 21 19 20 20 12 9 10 6 2 3 2 3 3 4 4 4 5 4 1 4 3 4 3 2 11 6 6 5 1 3 1 2 4 2 5 4 1 3 7
20 23 24 28 30 22 24 15 13 19 21 26 5 3 5 7 5 3 4 4 4 5 4 5 4 4 3 5 3 3 4 5 9 6 6 7 3 5 5 3 3 4 5 6 6 3 5
21 22 22 24 23 24 22 17 21 31 27 25 8 8 5 3 0 2 1 1 4 5 6 9 3 7 6 5 4 4 3 3 4 7 6 3 4 4 9 8 6 7 11 9 12 13 9
26 24 24 22 20 21 24 28 29 28 29 23 7 6 6 5 4 2 4 5 6 2 7 5 6 8 8 6 6 6 6 5 5 5 5 4 3 3 5 10 10 12 14 12 14 14 9
29 28 29 29 29 24 21 20 24 25 22 19 18 19 12 7 5 4 6 4 4 5 8 4 9 5 7 5 5 6 5 5 8 8 7 6 2 1 4 4 4 8 8 14 4 5 4
30 29 26 25 25 24 24 22 21 24 24 26 24 16 10 4 6 7 8 8 5 10 4 3 6 5 6 11 10 6 4 4 6 7 9 5 5 3 4 3 2 4 1 1 3 4 4
33 33 28 27 24 25 25 24 23 23 24 26 29 24 13 3 8 4 10 7 9 8 2 4 2 5 15 8 3 2 1 1 4 5 5 5 3 2 3 2 7 4 3 3 3 4 3
31 32 30 29 29 26 25 23 26 21 24 25 26 28 13 7 11 11 9 16 6 5 4 3 8 16 10 3 3 5 5 3 3 2 2 5 2 3 2 2 5 4 4 6 5 5 9
28 29 28 29 30 28 24 23 25 25 26 22 26 26 24 6 9 18 7 10 14 10 4 6 9 7 8 2 4 4 4 4 5 6 5 3 2 10 8 4 7 4 11 7 2 4 9
27 27 28 28 27 29 29 27 26 28 30 26 29 23 29 12 14 21 17 14 15 16 6 13 7 6 4 4 4 3 3 4 3 4 6 7 6 4 4 4 8 14 6 6 4 4 6
26 26 26 27 27 27 27 23 26 32 32 37 31 23 31 16 7 20 21 20 21 19 17 25 5 7 12 3 1 2 2 1 4 3 2 3 6 5 9 5 3 26 6 11 6 7 8
Wind_Direction
35 32 28 24 22 17 14 11 10 9 9 12 13 13 13 25 33 39 45 44 53 85 127 160 329 346 11 72 33 9 11 14 6 26 45 54 74 51 87 90 89 95 123 80 100 96 94
27 25 23 18 16 14 12 10 8 8 9 9 12 11 12 23 33 34 32 44 68 95 105 109 24 318 336 79 29 9 3 1 6 20 26 46 49 53 77 51 62 111 113 123 108 103 111
16 16 17 14 12 12 12 11 9 9 9 9 11 12 11 22 29 33 33 52 98 105 57 7 18 83 80 72 27 3 348 346 9 26 41 52 45 141 87 76 115 129 84 80 57 100 122
7 8 9 11 10 9 8 6 7 9 10 8 7 10 9 17 18 21 30 60 91 46 276 355 6 27 85 32 18 356 21 22 34 57 59 74 87 87 58 94 91 88 76 85 11 6 167
6 3 3 5 7 8 6 7 9 10 10 9 8 5 5 353 357 3 17 71 49 59 101 240 345 101 82 14 358 20 22 36 63 80 84 93 86 61 40 49 38 22 214 137 260 34 347
358 0 2 1 3 4 3 6 10 12 12 10 7 4 0 346 332 344 319 266 330 204 221 224 33 98 34 344 5 8 44 37 58 109 108 61 63 71 29 41 222 244 335 308 238 349 351
352 358 358 359 1 2 2 5 6 7 6 5 3 360 355 352 327 340 324 285 268 86 84 71 70 89 20 3 35 10 44 44 75 68 53 31 65 86 94 55 155 212 239 268 170 31 288
345 346 350 354 360 2 3 6 7 6 3 359 355 351 348 343 324 339 321 298 214 149 96 52 45 49 25 15 2 19 41 71 41 51 354 34 89 200 116 42 82 87 265 283 294 19 1
345 345 345 347 352 358 5 8 8 8 6 0 354 350 346 339 315 344 346 180 134 112 72 41 30 26 19 14 45 8 24 67 71 44 27 112 180 257 131 46 39 53 159 17 261 338 276
352 350 348 347 346 351 357 2 6 6 3 1 357 348 345 343 322 343 348 150 143 78 67 203 331 18 12 35 60 27 20 52 47 140 83 83 337 136 101 90 70 303 158 280 283 10 263
357 358 357 352 346 344 348 350 351 354 357 358 355 351 342 341 321 331 293 181 155 348 1 82 15 57 35 82 345 27 20 62 97 65 117 77 39 58 88 128 135 246 319 274 227 185 3
341 347 352 352 350 341 340 341 341 343 345 348 352 352 344 338 320 327 289 199 209 39 263 148 138 33 31 24 27 358 35 66 105 82 50 100 81 67 113 339 232 312 333 28 87 145 345
318 322 329 335 337 339 337 335 337 337 339 340 344 347 341 339 329 328 130 142 16 150 53 193 224 89 87 16 9 30 41 20 69 44 3 54 130 18 21 55 18 26 23 339 339 347 246
304 303 307 316 323 326 330 333 334 334 336 338 338 340 337 329 328 310 174 39 243 187 186 104 126 96 242 126 165 20 83 55 40 64 108 65 326 131 23 72 122 57 108 148 259 272 281
294 295 297 301 308 316 321 325 331 332 335 337 337 335 330 318 333 301 102 357 250 232 108 141 68 154 225 220 297 98 78 160 126 40 116 104 224 84 77 115 133 143 102 149 82 209 8
279 284 287 293 297 303 310 315 320 327 331 333 334 332 317 315 330 177 82 257 289 13 10 7 202 177 240 192 203 193 174 168 161 154 172 174 319 200 165 123 122 159 150 75 42 310 275
271 277 280 283 287 294 299 308 310 318 328 333 334 330 275 315 311 207 200 225 259 238 95 353 300 283 260 216 197 227 188 152 169 136 72 119 113 155 101 203 176 139 131 127 152 156 204
274 273 272 275 278 279 286 292 301 308 317 328 332 320 286 294 287 306 214 204 167 182 183 212 218 268 210 182 219 261 220 292 165 147 157 180 141 246 223 358 47 159 181 155 144 259 231
299 296 304 273 276 277 271 280 290 306 317 323 316 281 276 257 237 241 264 269 248 167 206 177 202 178 142 208 232 195 166 167 160 153 163 176 196 324 247 344 352 176 191 189 149 107 206
291 298 297 285 297 283 272 289 296 299 311 318 303 328 248 208 231 171 184 227 234 208 220 198 171 140 146 205 208 208 165 184 184 170 162 164 202 211 213 211 152 202 204 203 178 181 233
297 293 300 296 287 280 283 276 278 289 282 284 227 212 226 278 238 212 4 200 192 228 219 200 218 211 177 195 182 220 133 133 191 202 152 149 236 218 262 261 233 229 241 213 213 231 223
281 281 286 291 299 303 293 288 269 265 277 277 232 207 195 233 193 122 149 226 228 240 165 232 224 192 191 189 194 188 144 175 192 173 149 177 273 320 269 257 256 256 251 235 237 249 246
287 285 282 282 285 286 293 290 287 273 264 261 233 220 215 196 172 136 192 194 263 178 221 272 203 141 195 216 161 115 145 139 175 159 174 161 207 18 266 318 332 291 235 223 206 219 196
279 280 282 284 283 284 286 291 286 290 291 272 249 210 181 232 198 197 191 176 193 208 256 184 194 154 147 137 118 99 96 115 161 187 178 153 152 164 274 340 279 245 171 189 222 229 224
279 280 281 283 280 283 283 278 282 289 283 276 264 225 190 205 201 219 210 192 165 144 130 158 176 194 156 132 99 105 350 347 202 203 191 160 130 247 257 223 301 351 195 183 178 273 181
277 275 274 272 281 283 281 279 273 278 278 276 264 240 221 157 219 184 171 192 177 147 136 130 140 151 165 149 169 208 223 179 199 171 71 155 133 162 168 231 256 223 162 124 112 273 174
285 280 276 274 269 274 280 282 280 272 271 276 262 254 227 214 210 177 175 189 177 147 126 144 160 182 190 168 195 204 224 140 183 181 174 158 195 213 225 250 282 191 154 140 138 244 185
286 288 286 276 271 269 272 276 278 273 272 269 261 249 221 216 225 209 207 191 158 165 155 151 121 192 155 192 188 214 176 206 131 181 172 171 162 202 174 226 262 157 128 172 186 195 248
283 287 288 288 272 271 265 270 273 283 275 268 246 233 219 224 233 210 201 204 212 202 171 167 180 154 171 140 188 107 167 121 162 240 135 225 185 184 187 221 150 180 197 208 262 276 274
Height
1582 1580 1578 1577 1575 1572 1569 1567 1563 1560 1557 1554 1551 1548 1545 1542 1540 1539 1537 1535 1534 1533 1533 1533 1533 1531 1530 1530 1534 1532 1531 1529 1529 1527 1526 1525 1525 1526 1528 1528 1529 1534 1540 1542 1544 1542 1546
1583 1582 1579 1578 1575 1573 1571 1568 1564 1561 1557 1554 1552 1549 1546 1544 1542 1539 1537 1535 1534 1534 1534 1533 1533 1531 1531 1533 1534 1532 1531 1530 1529 1528 1528 1527 1528 1529 1530 1531 1531 1534 1538 1543 1546 1548 1550
1585 1583 1581 1579 1577 1574 1571 1568 1565 1561 1558 1555 1553 1550 1547 1545 1543 1541 1539 1537 1535 1535 1534 1534 1533 1533 1532 1536 1534 1532 1530 1528 1528 1528 1528 1528 1528 1530 1531 1534 1537 1539 1544 1545 1547 1548 1552
1587 1585 1583 1580 1578 1576 1573 1569 1566 1562 1559 1556 1553 1551 1549 1546 1544 1542 1540 1538 1537 1536 1535 1534 1533 1533 1533 1534 1533 1532 1529 1528 1528 1527 1528 1528 1529 1529 1532 1536 1538 1540 1544 1549 1550 1548 1550
1587 1586 1584 1581 1579 1576 1573 1570 1567 1563 1560 1557 1554 1551 1549 1547 1545 1542 1540 1539 1537 1535 1535 1534 1534 1532 1535 1535 1534 1530 1528 1527 1527 1528 1528 1528 1529 1534 1536 1542 1546 1550 1548 1548 1551 1550 1549
1588 1586 1584 1582 1580 1577 1574 1570 1567 1564 1560 1557 1554 1551 1548 1546 1544 1542 1540 1539 1537 1535 1534 1535 1534 1536 1536 1536 1534 1531 1529 1527 1526 1527 1528 1528 1531 1541 1550 1551 1546 1559 1553 1553 1550 1555 1552
1587 1585 1584 1582 1580 1578 1575 1572 1569 1566 1562 1558 1555 1551 1548 1545 1543 1541 1540 1539 1540 1538 1534 1537 1538 1537 1537 1536 1536 1533 1529 1528 1528 1528 1534 1534 1543 1556 1556 1556 1556 1555 1555 1556 1554 1557 1555
1588 1586 1584 1582 1580 1578 1576 1573 1570 1567 1563 1560 1556 1552 1549 1545 1542 1540 1539 1538 1538 1540 1540 1540 1539 1538 1538 1536 1535 1534 1532 1531 1531 1537 1536 1543 1554 1553 1553 1554 1554 1554 1555 1558 1556 1556 1557
1588 1586 1585 1583 1580 1578 1576 1573 1571 1567 1564 1560 1557 1553 1549 1546 1543 1541 1538 1538 1538 1538 1540 1543 1541 1540 1540 1539 1540 1538 1536 1536 1539 1543 1543 1544 1552 1550 1552 1557 1555 1557 1558 1563 1565 1560 1555
1588 1586 1584 1583 1581 1580 1578 1574 1571 1567 1565 1561 1557 1553 1549 1546 1546 1541 1539 1538 1538 1538 1544 1543 1542 1541 1541 1539 1541 1540 1539 1541 1542 1550 1550 1553 1553 1552 1554 1557 1560 1558 1558 1561 1561 1565 1562
1589 1587 1584 1582 1581 1580 1577 1575 1572 1568 1565 1561 1557 1553 1549 1546 1545 1543 1543 1541 1540 1541 1554 1543 1541 1541 1541 1541 1544 1543 1542 1540 1545 1549 1551 1559 1558 1558 1557 1559 1560 1558 1559 1560 1561 1565 1566
1589 1587 1584 1581 1579 1579 1577 1574 1571 1568 1565 1561 1557 1554 1550 1548 1545 1543 1541 1542 1543 1549 1551 1540 1541 1541 1542 1542 1543 1542 1542 1543 1545 1547 1551 1557 1558 1559 1559 1559 1560 1559 1559 1558 1562 1566 1583
1588 1586 1585 1581 1578 1576 1574 1573 1570 1567 1564 1560 1557 1553 1550 1548 1547 1545 1542 1545 1552 1552 1540 1539 1541 1541 1543 1545 1544 1545 1548 1551 1550 1545 1552 1558 1559 1561 1562 1563 1563 1563 1567 1569 1570 1588 1556
1586 1584 1582 1580 1578 1575 1572 1570 1568 1565 1562 1558 1556 1553 1549 1548 1547 1544 1547 1546 1548 1530 1537 1539 1541 1543 1544 1547 1547 1548 1551 1555 1556 1555 1560 1558 1554 1563 1562 1563 1567 1567 1569 1580 1580 1580 1581
1582 1582 1580 1578 1575 1574 1572 1568 1567 1564 1560 1557 1553 1551 1548 1546 1545 1547 1547 1556 1538 1535 1538 1539 1542 1542 1544 1546 1548 1549 1550 1553 1555 1557 1554 1558 1556 1560 1561 1561 1564 1566 1570 1572 1591 1592 1595
1578 1577 1576 1575 1572 1571 1568 1566 1565 1562 1558 1555 1551 1548 1545 1545 1545 1544 1550 1546 1542 1544 1546 1544 1535 1538 1538 1545 1546 1546 1549 1552 1554 1553 1552 1558 1559 1560 1561 1561 1562 1563 1567 1579 1587 1592 1578
1572 1571 1571 1570 1569 1567 1565 1564 1561 1559 1557 1554 1550 1546 1544 1544 1545 1544 1548 1544 1544 1544 1544 1546 1546 1543 1543 1543 1544 1545 1545 1550 1551 1555 1555 1558 1562 1563 1561 1562 1561 1566 1570 1569 1576 1587 1607
1564 1565 1564 1564 1562 1562 1561 1559 1557 1556 1553 1552 1551 1549 1545 1543 1547 1545 1546 1540 1539 1540 1542 1543 1544 1545 1546 1547 1548 1550 1548 1548 1550 1552 1558 1558 1566 1571 1560 1559 1558 1559 1565 1568 1579 1589 1584
1560 1559 1557 1555 1555 1554 1552 1553 1552 1552 1551 1550 1548 1546 1542 1543 1545 1544 1543 1541 1540 1538 1539 1540 1540 1538 1542 1545 1546 1546 1548 1548 1550 1553 1556 1558 1566 1572 1559 1564 1563 1562 1557 1561 1564 1570 1571
1554 1552 1552 1551 1550 1547 1547 1545 1545 1547 1546 1548 1548 1547 1540 1537 1537 1539 1542 1538 1538 1537 1537 1536 1536 1538 1540 1541 1543 1543 1547 1548 1549 1552 1553 1555 1561 1558 1551 1551 1555 1557 1552 1557 1560 1572 1562
1548 1546 1545 1544 1544 1543 1541 1540 1539 1540 1539 1543 1541 1538 1539 1536 1531 1536 1542 1539 1536 1534 1535 1535 1536 1533 1534 1539 1541 1542 1545 1549 1550 1550 1553 1555 1560 1557 1551 1550 1550 1547 1545 1550 1551 1546 1554
1541 1539 1539 1538 1539 1538 1537 1536 1532 1532 1533 1534 1532 1534 1533 1532 1531 1533 1535 1534 1534 1531 1533 1533 1531 1526 1530 1531 1530 1536 1539 1544 1544 1550 1551 1554 1553 1552 1547 1541 1542 1541 1536 1538 1537 1536 1537
1535 1534 1532 1531 1531 1530 1529 1529 1527 1525 1525 1523 1521 1520 1525 1526 1527 1527 1525 1525 1526 1529 1526 1528 1524 1526 1529 1529 1530 1532 1534 1535 1537 1544 1548 1552 1554 1556 1550 1542 1543 1543 1534 1527 1531 1527 1529
1527 1528 1527 1526 1525 1524 1522 1521 1518 1520 1520 1518 1513 1513 1519 1516 1518 1515 1515 1516 1519 1524 1524 1523 1526 1524 1528 1528 1531 1533 1536 1535 1537 1540 1542 1548 1554 1556 1552 1545 1555 1528 1526 1525 1525 1526 1526
1519 1518 1519 1520 1519 1517 1515 1514 1512 1511 1512 1511 1510 1507 1505 1507 1508 1510 1510 1511 1513 1516 1523 1522 1523 1524 1525 1528 1532 1535 1539 1536 1535 1537 1540 1541 1550 1551 1551 1555 1528 1530 1525 1527 1526 1524 1525
1508 1508 1509 1510 1512 1511 1509 1507 1504 1503 1504 1502 1501 1502 1499 1497 1492 1494 1501 1504 1506 1510 1517 1520 1523 1526 1527 1527 1527 1528 1524 1523 1536 1540 1540 1542 1543 1551 1550 1555 1538 1525 1524 1525 1527 1533 1523
1499 1499 1500 1500 1501 1502 1502 1501 1498 1497 1495 1495 1492 1493 1495 1491 1489 1490 1490 1494 1495 1498 1507 1514 1519 1524 1526 1526 1525 1525 1523 1520 1530 1535 1542 1545 1547 1544 1544 1547 1533 1519 1521 1524 1531 1527 1521
1492 1492 1491 1491 1491 1493 1493 1493 1493 1491 1487 1488 1483 1483 1486 1483 1481 1482 1482 1487 1487 1488 1494 1503 1513 1518 1521 1526 1522 1519 1523 1521 1526 1524 1529 1538 1544 1545 1542 1545 1537 1516 1523 1527 1517 1516 1518
1485 1484 1482 1481 1482 1483 1484 1485 1484 1485 1482 1480 1476 1475 1475 1478 1477 1476 1477 1480 1483 1481 1487 1493 1494 1496 1502 1507 1516 1519 1518 1527 1523 1524 1519 1527 1520 1529 1527 1517 1508 1509 1509 1511 1512 1513 1515